This demonstration page uses our WeatherBlox Daily Observations layout. Learn more.

Left ArrowRight Arrow

Hourly Observations for November 20, 2019

Temp ( °F °C ) Dew Point ( °F °C ) Humidity (%) Winds ( mph kmh ) Pressure ( in mb ) Visibility ( mi km ) Precip ( " mm )
12:56 am 00:56 Clear 43 6.1 31 -0.6 63 63 SE 7 11 29.76 1008 10 16 0.00 0.00
1:56 am 01:56 Clear 42 5.6 32 0 68 68 SE 8 13 29.74 1007 10 16 0.00 0.00
2:56 am 02:56 Clear 39 3.9 31 -0.6 73 73 SE 8 13 29.73 1007 10 16 0.00 0.00
3:56 am 03:56 Clear 38 3.3 32 0 79 79 SSE 9 15 29.72 1007 10 16 0.00 0.00
4:56 am 04:56 Clear 37 2.8 31 -0.6 79 79 ESE 6 9 29.71 1006 10 16 0.00 0.00
5:56 am 05:56 Clear 36 2.2 31 -0.6 82 82 ESE 6 9 29.71 1006 10 16 0.00 0.00
6:56 am 06:56 Clear 35 1.7 31 -0.6 85 85 SE 6 9 29.71 1006 10 16 0.00 0.00
7:56 am 07:56 Sunny 37 2.8 32 0 82 82 SE 7 11 29.72 1006 10 16 0.00 0.00
8:56 am 08:56 Sunny 43 6.1 36 2.2 76 76 SSE 10 17 29.71 1006 10 16 0.00 0.00
9:56 am 09:56 Sunny 48 8.9 38 3.3 68 68 SE 10 17 29.70 1006 10 16 0.00 0.00
10:56 am 10:56 undefined 53 11.7 41 5 64 64 SSE 17 28 29.67 1005 10 16 0.02 0.51
11:56 am 11:56 Sunny 54 12.2 43 6.1 67 67 SSE 16 26 29.63 1003 10 16 0.00 0.00
12:56 pm 12:56 Sunny 56 13.3 45 7.2 67 67 S 5 7 29.63 1004 10 16 0.00 0.00
1:56 pm 13:56 Sunny 57 13.9 45 7.2 64 64 SSW 8 13 29.64 1004 10 16 0.00 0.00
2:56 pm 14:56 Mostly Cloudy 59 15 46 7.8 62 62 Calm 29.63 1003 10 16 0.00 0.00
3:56 pm 15:56 Mostly Cloudy 58 14.4 45 7.2 62 62 NNW 6 9 29.65 1004 10 16 0.00 0.00
4:56 pm 16:56 Mostly Cloudy 56 13.3 44 6.7 65 65 N 10 17 29.66 1004 8 13 0.00 0.00
5:56 pm 17:56 Clear 54 12.2 43 6.1 67 67 N 13 20 29.67 1005 10 16 0.00 0.00
6:56 pm 18:56 Cloudy with Light Rain 45 7.2 37 2.8 74 74 NNW 18 30 29.74 1007 10 16 0.00 0.00
7:56 pm 19:56 Cloudy with Light Rain 40 4.4 37 2.8 89 89 NNW 21 33 29.75 1008 8 13 0.14 3.56
8:20 pm 20:20 Cloudy with Rain 39 4 37 3 93 93 NNW 23 37 29.78 1008 7 11 0.05 1.27
8:56 pm 20:56 Cloudy with Rain 38 3.3 36 2.2 93 93 NNW 23 37 29.75 1008 6 10 0.16 4.06
9:36 pm 21:36 Cloudy with Light Rain 37 3 36 2 93 93 NNW 22 35 29.82 1010 10 16 0.04 1.02
9:56 pm 21:56 Cloudy with Light Rain 37 2.8 36 2.2 96 96 NNW 22 35 29.80 1009 7 11 0.07 1.78
10:56 pm 22:56 Cloudy with Light Rain 37 2.8 35 1.7 93 93 NNW 20 31 29.84 1011 10 16 0.02 0.51
11:56 pm 23:56 Cloudy with Light Rain 36 2.2 34 1.1 93 93 NNW 17 28 29.86 1011 10 16 0.00 0.00

Powered by AerisWeather